#timestamp,LO_Frequency,Hit,StdDev 
1543669215.6,286047000.0,N
1543669235.4,286047000.2,N
1543669255.3,286046998.2,N
1543669275.1,286046998.4,N
1543669295.9,286046998.9,N
1543669315.7,286046999.0,N
1543669335.5,286046999.4,N
1543669355.4,286046998.5,N
1543669375.2,286046999.4,N
1543669395.0,286046999.5,N
1543669395.9,286046999.5,N
1543669415.8,286046996.6,Y
1543669435.6,286046998.4,P
1543669455.5,286046998.5,P
1543669475.3,286046998.1,P
1543669495.1,286046998.8,N
1543669515.9,286046999.0,N
1543669535.7,286046998.3,Y
1543669555.6,286047002.1,P
1543669575.4,286047002.5,N
1543669595.2,286047001.9,N
1543669615.1,286047002.8,N
1543669616.0,286047002.8,N
1543669635.8,286047000.7,N
1543669655.6,286046999.8,N
1543669675.5,286047002.2,N
1543669695.3,286046999.9,N
1543669715.2,286047000.9,N
1543669735.9,286047001.2,N
1543669755.7,286047000.3,N
1543669775.6,286047000.9,N
1543669795.4,286046999.8,N
1543669815.2,286047000.3,N
1543669835.1,286047000.1,N
1543669836.0,286047000.1,N
1543669855.8,286047001.8,N
1543669875.7,286047001.7,N
1543669895.5,286047003.7,Y
1543669915.3,286047004.1,P
1543669935.2,286047001.6,N
1543669955.0,286047002.7,N
1543669955.9,286047002.7,N
1543669975.7,286047000.8,N
1543669995.6,286046999.8,N
1543670015.4,286047001.8,N
1543670035.3,286047001.8,N
1543670055.1,286047001.9,N
1543670056.0,286047001.9,N
1543670075.8,286047004.1,Y
1543670095.7,286047002.4,P
1543670115.5,286047002.7,P
1543670135.3,286047002.3,P
1543670155.2,286046999.7,N
1543670175.0,286047000.1,N
1543670175.9,286047000.1,N
1543670195.8,286046999.8,N
1543670215.6,286047002.1,N
1543670235.4,286047001.6,N
1543670255.3,286047002.1,N
1543670275.1,286047002.3,N
1543670295.8,286047002.2,N
1543670315.7,286047004.0,Y
1543670335.5,286047001.9,P
1543670355.4,286047002.1,P
1543670405.2,286046999.7,E
1543670415.1,286047000.1,N
1543670435.9,286047000.3,P
1543670455.7,286047000.0,N
1543670475.5,286047000.8,Y
1543670495.4,286047000.0,P
1543670515.2,286046998.5,P
1543670535.1,286046998.2,N
1543670536.0,286046998.2,N
1543670555.8,286047016.0,Y
1543670575.6,286047017.8,P
1543670595.5,286047014.3,N
1543670615.3,286047012.2,N
1543670635.2,286047010.1,N
1543670655.9,286047008.0,N
1543670675.7,286047008.5,N
1543670695.6,286047006.8,N
1543670715.4,286047006.3,N
1543670735.2,286047005.0,N
1543670755.1,286047003.6,N
1543670756.0,286047003.6,N
1543670775.8,286047005.9,N
1543670795.7,286047011.9,N
1543670815.5,286047005.1,N
1543670835.3,286047004.7,N
1543670855.2,286047005.7,N
1543670875.9,286047005.9,N
1543670895.7,286047003.0,N
1543670915.6,286047003.6,N
1543670935.4,286047003.5,N
1543670955.2,286047003.8,N
1543670975.1,286047003.5,N
1543670976.0,286047003.5,N
1543670995.8,286047005.9,N
1543671015.7,286047005.9,N
1543671035.5,286047004.1,N
1543671055.3,286047003.3,N
1543671075.2,286047003.1,N
1543671095.0,286047001.8,N
1543671095.9,286047001.8,N
1543671115.7,286047004.4,N
1543671135.6,286047003.1,N
1543671155.4,286047001.3,N
1543671175.3,286047003.6,N
1543671195.1,286047003.4,N
1543671196.0,286047003.4,N
1543671215.8,286047003.0,N
1543671235.7,286047003.0,N
1543671255.5,286047004.1,N
1543671275.3,286047004.4,N
1543671295.2,286047001.3,N
1543671315.0,286047003.9,N
1543671315.9,286047003.9,N
1543671335.8,286047004.4,Y
1543671355.6,286046999.4,P
1543671375.4,286046999.5,N
1543671395.3,286046998.4,N
1543671415.1,286046998.1,N
1543671435.8,286046998.2,N
1543671455.7,286047001.1,N
1543671475.5,286047000.8,N
1543671495.4,286046998.1,N
1543671515.2,286047000.8,N
1543671535.0,286046998.2,N
1543671535.9,286046998.2,N
1543671555.8,286046998.5,N
1543671575.6,286046998.3,N
1543671595.4,286046999.3,N
1543671615.3,286046999.4,N
1543671635.1,286046996.5,N
1543671655.9,286046999.5,N
1543671675.7,286046998.3,N
1543671695.5,286047001.0,N
1543671715.4,286046998.4,N
1543671735.2,286046999.3,N
1543671755.0,286046998.3,N
1543671755.9,286046998.3,N
1543671775.8,286047001.0,N
1543671795.6,286046998.3,N
1543671815.5,286046999.7,N
1543671835.3,286047000.1,N
1543671855.1,286047000.6,N
1543671875.9,286047000.9,N
1543671895.7,286047002.2,N
1543671915.5,286047000.1,N
1543671935.4,286047002.5,N
1543671955.2,286047002.4,N
1543671975.1,286046999.7,N
1543671976.0,286046999.7,N
1543671995.8,286047000.5,N
1543672015.6,286046998.4,N
1543672035.5,286046998.3,N
1543672055.3,286046998.2,N
1543672075.2,286047000.9,N
1543672095.9,286046998.6,N
1543672115.7,286046998.3,N
1543672135.6,286046998.6,N
1543672155.4,286046999.1,N
1543672175.3,286046999.3,N
1543672195.1,286047000.6,N
1543672196.0,286047000.6,N
1543672215.8,286046998.3,N
1543672235.7,286046998.7,N
1543672255.5,286046998.7,N
1543672275.3,286046998.1,N
1543672295.2,286047000.3,N
1543672315.0,286046998.2,N
1543672315.9,286046998.2,N
1543672335.8,286047000.0,N
1543672355.6,286046998.6,N
1543672375.4,286047001.2,N
1543672395.3,286046998.6,N
1543672415.1,286046998.6,N
1543672435.8,286046998.4,N
1543672455.7,286047001.2,N
1543672475.5,286047000.7,N
1543672495.4,286047000.1,N
1543672515.2,286047002.8,N
1543672535.0,286046998.5,N
1543672535.9,286046998.5,N
1543672555.8,286047001.1,N
1543672575.6,286047001.1,N
1543672595.4,286047000.7,N
1543672615.3,286046998.7,N
1543672635.1,286046998.3,N
1543672655.9,286046998.5,N
1543672675.7,286047000.5,N
1543672695.5,286047002.8,N
1543672715.4,286047002.3,N
1543672735.2,286047002.5,N
1543672755.1,286047000.2,N
1543672756.0,286047000.2,N
1543672775.8,286047000.3,N
1543672795.6,286047000.2,N
